DateTimeUTC,F1_A11,F1_S11,BsB_S11,BsG_S11,BsR_S11,BbsB_S11,BbsG_S11,BbsR_S11,BaB_A11,BaG_A11,BaR_A11,Tu_S11,T_S11,Uu_S11,U_S11,P_S11,T1_A11
2021-04-27T20:00:00Z,00040200,20000000,,,,,,,0000.03,0000.15,0000.05,20.9,27.7,05.0,03.3,0684.0,31.5
2021-04-27T20:01:00Z,00040200,20000000,,,,,,,0000.32,0000.16,-000.05,20.9,27.7,05.0,03.3,0684.0,31.5
2021-04-27T20:02:00Z,00040200,20000000,,,,,,,0000.06,0000.17,-000.03,20.9,27.7,05.0,03.3,0684.0,31.5
2021-04-27T20:03:00Z,00040200,60000000,,,,,,,0000.18,-000.08,0000.30,20.9,27.7,05.0,03.3,0684.0,31.5
2021-04-27T20:04:00Z,00040200,40000000,0000.59,0000.83,0000.47,-000.37,0000.10,0000.43,0000.51,0000.66,0000.28,21.0,27.5,05.1,03.5,0684.9,31.5
2021-04-27T20:05:00Z,00040200,00000000,0000.87,0000.76,0000.58,0000.46,0000.25,-000.05,0000.15,0000.39,0000.07,21.0,27.5,05.2,03.5,0685.0,31.5
2021-04-27T20:06:00Z,00040200,00000000,0000.92,0000.53,0000.62,0000.51,0000.24,-000.24,0000.36,-000.09,0000.59,21.0,27.5,05.1,03.5,0685.0,31.5
2021-04-27T20:07:00Z,00040200,00000000,0001.23,0000.74,0000.21,0000.28,0000.14,0000.14,0000.30,0000.73,0000.16,21.0,27.4,05.2,03.5,0685.0,31.5
2021-04-27T20:08:00Z,00040200,00000000,0001.56,0000.82,0000.40,0000.19,0000.13,0000.11,0000.69,0000.32,0000.40,21.0,27.4,05.2,03.5,0685.0,31.5
2021-04-27T20:09:00Z,00040200,00000000,0001.45,0000.72,0000.58,-000.29,0000.31,0000.21,0000.72,0000.24,0000.41,21.0,27.4,05.3,03.6,0685.0,31.5
2021-04-27T20:10:00Z,00040200,00000000,0001.53,0000.77,0000.60,-000.08,0000.24,0000.23,0000.29,0000.76,0000.25,21.0,27.4,05.3,03.6,0685.0,31.5
2021-04-27T20:11:00Z,00040200,00000000,0000.87,0000.88,0000.71,0000.05,0000.15,0000.29,0000.42,0000.22,0000.28,21.0,27.4,05.2,03.6,0685.1,31.4
2021-04-27T20:12:00Z,00040200,00000000,0001.62,0000.88,0000.68,-000.24,0000.02,0000.43,0000.45,0000.13,0000.10,21.0,27.4,05.3,03.6,0685.1,31.5
2021-04-27T20:13:00Z,00040200,00000000,0000.47,0001.04,0000.67,-000.01,0000.16,0000.29,0000.10,0000.48,0000.54,21.0,27.4,05.3,03.6,0685.1,31.5
2021-04-27T20:14:00Z,00040200,00000000,0001.13,0000.92,0000.46,0000.12,0000.28,0000.22,0000.51,0000.28,0000.28,21.0,27.4,05.3,03.6,0685.1,31.5
2021-04-27T20:15:00Z,00040200,00000000,0001.57,0001.03,0000.64,0000.40,0000.37,0000.29,0000.31,0000.34,-000.08,21.0,27.4,05.3,03.6,0685.1,31.5
2021-04-27T20:16:00Z,00040200,00000000,0001.54,0000.93,0000.65,-000.27,0000.26,0000.11,0000.56,0000.67,0000.21,21.0,27.4,05.2,03.6,0685.1,31.5
2021-04-27T20:17:00Z,00040200,00000000,0001.66,0000.81,0000.67,-000.32,0000.04,0000.47,0000.39,0000.34,0000.65,21.0,27.4,05.3,03.6,0685.1,31.5
2021-04-27T20:18:00Z,00040200,00000000,0000.79,0001.00,0000.43,-000.19,0000.09,0000.13,0000.33,0000.38,0000.06,21.0,27.4,05.3,03.6,0685.1,31.5
2021-04-27T20:19:00Z,00040200,00000000,0000.45,0000.49,0000.40,-000.02,0000.08,0000.16,0000.39,0000.42,0000.56,21.0,27.4,05.3,03.6,0685.1,31.5
2021-04-27T20:20:00Z,00040200,00000000,0001.01,0000.89,0000.51,0000.46,0000.13,0000.18,0000.22,0000.11,0000.05,21.0,27.4,05.2,03.5,0685.1,31.5
2021-04-27T20:21:00Z,00040200,00000000,0000.98,0000.79,0000.57,-000.29,0000.37,0000.30,0000.41,0000.23,0000.27,21.0,27.4,05.0,03.4,0685.1,31.5
2021-04-27T20:22:00Z,00040200,00000000,0002.15,0000.91,0000.75,0000.13,0000.20,0000.51,0000.30,0000.28,0000.24,21.0,27.4,05.1,03.5,0685.1,31.5
2021-04-27T20:23:00Z,00040200,00000000,0000.88,0000.88,0000.28,-000.64,0000.05,0000.24,0000.54,0000.46,0000.06,21.0,27.4,05.1,03.5,0685.1,31.5
2021-04-27T20:24:00Z,00040200,00000000,0000.34,0000.59,0000.64,0000.12,0000.50,-000.11,0000.43,0000.32,0000.45,21.0,27.4,05.1,03.5,0685.1,31.5
2021-04-27T20:25:00Z,00040200,00000000,0001.90,0000.73,0000.46,-000.01,0000.16,0000.21,0000.22,0000.28,0000.13,21.0,27.4,05.1,03.5,0685.1,31.4
2021-04-27T20:26:00Z,00040200,00000000,0001.16,0000.85,0000.42,0000.04,0000.09,0000.23,0000.64,0000.51,0000.12,21.0,27.4,05.1,03.5,0685.1,31.5
2021-04-27T20:27:00Z,00040200,00000000,0001.04,0000.55,0000.60,0000.02,0000.22,0000.16,0000.30,0000.46,0000.63,21.0,27.4,05.2,03.6,0685.1,31.5
2021-04-27T20:28:00Z,00040200,00000000,0001.66,0000.96,0000.53,-000.27,0000.27,0000.22,0000.16,0000.31,-000.06,21.0,27.3,05.1,03.5,0685.1,31.5
2021-04-27T20:29:00Z,00040200,00000000,0001.32,0000.86,0000.66,-000.07,0000.07,0000.44,0000.74,0000.06,0000.06,21.0,27.4,05.1,03.5,0685.1,31.5
2021-04-27T20:30:00Z,00040200,00000000,0000.46,0000.70,0000.53,-000.30,0000.21,0000.14,0000.09,0000.51,0000.29,21.0,27.4,05.1,03.5,0685.1,31.5
2021-04-27T20:31:00Z,00040200,00000000,0001.48,0000.70,0000.43,0000.09,0000.11,0000.05,0000.58,0000.29,0000.45,21.0,27.4,05.1,03.5,0685.1,31.5
2021-04-27T20:32:00Z,00040200,00000000,0000.97,0000.81,0000.64,-000.20,0000.21,-000.03,0000.56,0000.38,0000.46,21.0,27.4,05.2,03.5,0685.1,31.5
2021-04-27T20:33:00Z,00040200,00000000,0001.25,0000.86,0000.59,0000.33,0000.14,-000.05,0000.58,0000.69,0000.37,21.0,27.3,05.1,03.5,0685.1,31.5
2021-04-27T20:34:00Z,00040200,00000000,0001.74,0000.80,0000.72,-000.04,0000.36,0000.19,0000.20,0000.12,-000.10,21.0,27.4,05.2,03.5,0685.1,31.5
2021-04-27T20:35:00Z,00040200,00000000,0001.72,0000.77,0000.61,0000.42,0000.29,0000.23,0000.53,0000.66,0000.38,21.0,27.4,05.2,03.6,0685.1,31.5
2021-04-27T20:36:00Z,00040200,00000000,0001.31,0000.89,0000.47,0000.17,0000.13,0000.29,0000.33,0000.12,0000.59,21.0,27.3,05.1,03.5,0685.1,31.5
2021-04-27T20:37:00Z,00040200,00000000,0001.58,0000.27,0000.63,0000.17,0000.15,0000.28,0000.19,0000.36,0000.44,21.0,27.4,05.1,03.5,0685.1,31.5
2021-04-27T20:38:00Z,00040200,00000000,0001.43,0000.60,0000.59,0000.14,0000.19,0000.06,0000.52,0000.50,-000.06,21.0,27.3,05.1,03.5,0685.1,31.5
2021-04-27T20:39:00Z,00040200,00000000,0000.51,0000.80,0000.53,0000.29,0000.12,0000.36,0000.37,0000.12,0000.30,21.0,27.3,05.1,03.5,0685.1,31.5
2021-04-27T20:40:00Z,00040200,00000000,0001.21,0000.87,0000.57,0000.24,0000.38,0000.24,0000.10,0000.54,0000.40,21.0,27.3,05.1,03.5,0685.1,31.4
2021-04-27T20:41:00Z,00040200,00000000,0001.44,0000.99,0000.64,-000.08,0000.33,0000.08,0000.17,0000.24,0000.30,20.9,27.3,05.1,03.5,0685.2,31.4
2021-04-27T20:42:00Z,00040200,00000000,0001.22,0000.93,0000.30,-000.31,0000.01,0000.11,0000.15,-000.49,-000.57,21.0,27.3,04.8,03.3,0685.2,31.4
2021-04-27T20:43:00Z,00040200,00000000,0000.85,0000.88,0000.43,-000.27,0000.30,-000.03,-000.24,-000.11,0000.34,20.9,27.3,04.6,03.1,0685.2,31.4
2021-04-27T20:44:00Z,00040200,00000000,0001.00,0000.70,0000.43,-000.17,-000.02,0000.06,0000.71,0000.78,0000.35,20.9,27.3,04.6,03.1,0685.2,31.5
2021-04-27T20:45:00Z,00040200,00000000,0001.35,0000.78,0000.50,0000.06,0000.21,0000.02,0000.56,0000.52,0000.22,20.9,27.3,04.7,03.2,0685.2,31.5
2021-04-27T20:46:00Z,00040200,00000000,0001.12,0000.63,0000.56,0000.77,0000.02,0000.16,0000.03,-000.05,-000.19,20.9,27.3,04.7,03.2,0685.1,31.5
2021-04-27T20:47:00Z,00040200,00000000,0000.79,0000.64,0000.50,0000.09,0000.47,0000.29,0000.56,0000.43,0000.54,20.9,27.3,04.6,03.2,0685.1,31.5
2021-04-27T20:48:00Z,00040200,00000000,0000.97,0000.45,0000.20,0000.08,0000.17,0000.16,0000.60,0000.43,0000.27,20.9,27.3,04.8,03.2,0685.1,31.4
2021-04-27T20:49:00Z,00040200,00000000,0001.00,0000.75,0000.88,0000.22,0000.26,0000.23,0000.03,0000.18,0000.05,20.9,27.3,04.8,03.2,0685.1,31.4
2021-04-27T20:50:00Z,00040200,00000000,0001.41,0000.95,0000.43,0000.31,0000.23,0000.08,0000.54,-000.16,0000.22,20.9,27.3,04.6,03.1,0685.1,31.4
2021-04-27T20:51:00Z,00040200,00000000,0001.08,0000.78,0000.25,-000.12,0000.23,-000.21,0000.16,0001.13,0000.55,20.9,27.3,04.6,03.1,0685.1,31.4
2021-04-27T20:52:00Z,00040200,00000000,0000.92,0000.73,0000.67,0000.77,0000.01,0000.25,0000.66,0000.27,0000.35,20.9,27.3,04.7,03.2,0685.1,31.4
2021-04-27T20:53:00Z,00040200,00000000,0001.47,0000.94,0000.52,-000.14,0000.33,0000.06,0000.58,0000.33,0000.36,20.9,27.3,04.7,03.2,0685.1,31.4
2021-04-27T20:54:00Z,00040200,00000000,0001.62,0000.43,0000.51,-000.02,0000.22,0000.23,0000.50,0000.67,0000.29,20.9,27.3,04.9,03.3,0685.1,31.4
2021-04-27T20:55:00Z,00040200,00000000,0001.34,0000.79,0000.61,0000.21,0000.19,0000.27,0000.44,0000.11,0000.44,20.9,27.3,04.8,03.3,0685.1,31.4
2021-04-27T20:56:00Z,00040200,00000000,0001.66,0000.82,0000.55,0000.42,0000.29,0000.09,0000.49,0000.70,0000.03,20.9,27.3,04.9,03.3,0685.1,31.4
2021-04-27T20:57:00Z,00040200,40000000,,,,,,,0000.31,0000.29,0000.37,20.9,27.4,04.4,03.0,0685.1,31.4
2021-04-27T20:58:00Z,00040200,60000000,,,,,,,-000.09,-000.17,-000.18,20.7,27.4,04.8,03.2,0684.0,31.4
2021-04-27T20:59:00Z,00040200,20000000,,,,,,,0000.14,-000.08,0000.19,20.7,27.5,04.8,03.2,0684.0,31.4
